CAPE
0 0 0 0 0 63 293 312 316 295 302 350 351 350 523 554 493 372 206 139 134 12 0 0 0 0 0 0 0 0 0 0 0 0 0 0 2 3 1 1 0 0 0
0 2 67 182 270 372 423 350 249 275 329 404 520 589 582 456 268 198 137 109 36 8 0 0 0 0 0 0 0 0 0 0 0 0 0 0 0 2 1 1 1 1 0
246 460 811 697 588 481 450 417 433 479 612 622 548 634 512 267 150 117 93 30 3 0 0 0 0 0 0 0 0 0 0 0 0 0 1 3 1 0 1 1 1 1 1
922 1133 1099 977 836 734 760 683 585 557 557 554 537 448 427 265 145 49 9 0 0 0 0 0 0 0 11 0 0 0 0 0 0 0 1 2 1 1 0 1 1 1 1
1349 1381 1382 1117 1004 1221 1035 802 677 654 584 470 282 197 150 88 16 0 0 0 0 0 0 0 0 4 8 0 0 0 0 0 0 1 1 1 1 1 1 1 1 1 1
1303 1187 1047 1000 1009 1037 885 586 436 87 82 37 0 0 0 0 1 0 0 0 0 0 0 0 0 0 0 0 0 0 0 0 0 0 0 2 0 1 1 1 0 0 0
890 799 613 507 356 301 163 89 31 0 0 0 0 0 0 0 0 2 0 0 0 0 0 0 0 0 0 0 1 0 0 0 0 0 0 0 0 0 0 1 0 0 0
694 510 391 234 40 15 4 0 0 0 0 0 0 0 0 1 0 1 0 0 0 0 0 0 0 0 0 0 0 0 0 0 0 0 0 0 0 0 0 0 0 0 0
406 314 234 64 14 0 0 0 0 0 0 0 0 0 0 0 1 2 0 0 0 1 0 0 2 6 1 0 0 0 0 0 1 0 0 0 0 0 0 0 0 1 0
203 161 16 20 0 0 0 0 0 0 0 0 0 0 0 0 1 1 0 0 0 0 1 1 0 1 2 0 0 0 0 0 0 0 0 1 0 0 0 0 0 1 0
38 1 0 0 0 0 0 7 7 0 0 0 0 0 0 0 0 2 0 0 0 0 0 0 1 2 0 0 0 0 0 0 0 0 0 1 0 0 0 0 0 0 0
0 0 0 1 8 11 13 10 2 0 0 0 1 1 1 0 1 1 0 0 0 0 0 1 1 1 1 0 0 1 0 0 1 1 1 1 1 1 0 0 0 0 0
0 0 8 18 16 11 9 1 1 0 0 1 0 3 1 0 0 2 0 0 0 0 0 1 2 2 0 1 2 0 0 0 1 1 1 1 0 0 0 0 0 0 0
0 4 19 25 14 9 9 1 0 0 0 1 0 1 1 0 0 0 0 0 1 0 0 1 1 1 0 0 1 0 0 0 0 1 1 1 0 0 0 0 0 0 0
0 0 11 2 0 0 1 1 0 0 0 0 0 0 1 0 0 0 0 0 0 0 0 0 0 0 1 1 1 0 0 0 0 0 0 0 0 0 0 0 0 0 0
0 0 0 0 0 0 0 0 1 1 1 0 0 0 0 0 0 0 0 0 0 0 0 0 1 1 1 1 1 1 0 0 0 0 0 0 0 0 0 0 0 0 0
0 0 0 0 0 0 0 0 0 0 1 2 0 0 0 0 2 2 2 2 1 0 1 1 1 1 1 1 0 0 0 0 0 0 0 0 0 0 0 0 0 0 0
0 0 0 0 0 0 0 0 1 1 0 1 0 1 2 2 2 2 1 0 0 0 0 0 0 0 0 0 0 0 0 0 0 0 0 0 0 0 0 0 0 0 0
0 0 0 0 0 0 0 1 0 1 1 0 0 0 0 1 1 1 1 0 0 0 0 0 0 0 0 0 0 0 0 0 0 0 0 0 0 0 0 0 0 0 0
0 0 0 0 0 0 0 0 0 0 1 1 1 1 1 0 0 0 0 0 0 0 0 0 0 0 0 0 0 0 0 0 0 0 0 0 1 0 0 0 0 0 0
0 0 0 0 0 0 0 1 1 1 1 1 1 0 0 0 0 0 0 1 1 1 0 0 0 0 2 0 1 2 0 0 0 0 0 3 9 8 5 8 11 6 0
0 0 0 0 0 0 0 0 1 1 1 1 0 1 0 0 0 0 0 0 1 1 1 0 2 2 0 0 0 0 9 5 9 7 12 22 15 9 9 9 9 10 1
0 0 0 0 0 0 0 0 1 2 2 2 1 0 1 1 1 1 0 0 0 1 0 0 0 3 0 0 0 0 0 0 0 0 0 0 0 0 0 0 5 3 0
0 0 0 0 0 0 0 0 0 0 0 0 0 0 0 0 0 0 0 0 0 0 0 0 0 0 0 0 0 1 1 0 0 0 0 1 3 0 1 0 0 0 0
0 0 0 0 0 0 0 1 0 0 0 0 0 0 0 0 0 0 0 0 0 0 0 0 0 0 0 0 0 0 0 0 0 0 0 0 0 0 0 0 0 0 0
0 0 0 0 0 0 0 0 0 0 0 0 0 0 0 0 0 0 0 0 0 0 0 0 0 0 0 0 0 0 0 0 0 0 0 0 0 0 0 0 0 0 0
CIN
0 0 0 0 0 -663 -526 -490 -425 -382 -406 -371 -331 -296 -235 -217 -221 -219 -255 -253 -237 -383 0 0 0 0 0 0 0 0 0 0 0 0 0 0 -30 -8 0 0 0 0 0
0 -276 -718 -619 -558 -489 -453 -421 -426 -407 -362 -319 -246 -208 -188 -209 -249 -239 -245 -239 -308 -417 0 0 0 0 0 0 0 0 0 0 0 0 0 0 0 0 0 0 0 0 0
-619 -521 -416 -427 -411 -430 -388 -373 -336 -298 -235 -213 -212 -163 -175 -235 -248 -241 -223 -294 -298 0 0 0 0 0 0 0 0 0 0 0 0 0 0 -1 0 0 0 0 0 0 0
-379 -351 -346 -325 -337 -313 -250 -234 -247 -240 -220 -194 -176 -177 -154 -174 -189 -244 -334 0 0 0 0 0 0 0 -134 -81 0 0 0 0 0 0 0 -45 0 0 0 0 0 0 0
-254 -272 -240 -273 -236 -131 -126 -183 -190 -177 -177 -180 -205 -205 -229 -227 -287 0 0 0 0 0 0 0 0 -111 -131 0 0 0 0 0 0 0 0 0 0 0 0 0 0 0 0
-168 -191 -204 -194 -162 -116 -151 -206 -230 -366 -305 -305 0 0 0 0 0 0 0 0 0 0 0 0 0 0 -1 0 0 0 0 0 -1 0 0 0 0 0 -1 -2 0 -9 0
-160 -143 -212 -263 -322 -327 -368 -423 -422 0 0 0 0 0 0 0 0 0 0 0 0 0 0 0 0 0 0 0 0 0 0 0 0 0 0 0 0 0 0 -3 -1 0 0
-89 -134 -215 -280 -391 -423 -190 0 0 0 0 0 0 0 0 0 0 0 0 0 0 0 0 0 0 0 0 0 0 0 0 0 0 0 0 0 0 0 0 0 0 0 0
-45 -127 -211 -309 -364 0 0 0 0 0 0 0 0 0 0 0 0 0 0 0 0 0 0 0 -110 -139 0 0 0 0 0 0 0 0 0 0 0 0 0 0 0 0 0
-75 -182 -283 -249 0 0 0 0 0 0 0 0 0 0 0 0 0 0 0 0 0 0 0 0 0 0 0 0 0 0 0 0 0 0 0 0 0 0 0 0 0 -25 0
-181 -125 0 0 0 0 0 -154 -154 -70 0 0 0 0 0 0 0 0 0 0 0 0 0 0 0 0 0 0 0 0 0 0 0 0 0 0 0 0 0 0 0 0 0
0 0 0 -55 -99 -129 -167 -156 -149 0 0 0 0 0 0 0 0 0 0 0 0 0 0 0 0 0 0 0 0 0 0 0 0 0 0 0 0 0 0 0 0 0 0
0 0 -69 -89 -115 -153 -165 -157 0 0 0 0 0 0 0 0 0 0 0 0 0 0 0 0 0 0 0 0 0 0 0 0 0 0 0 0 0 0 0 0 0 0 0
0 -150 -102 -107 -128 -137 -163 -33 0 0 0 0 -1 -1 0 0 0 0 0 0 0 0 0 0 0 0 0 0 0 0 0 0 0 0 0 0 0 0 0 0 0 0 0
0 0 -143 -162 0 0 0 0 0 0 0 0 -1 0 0 0 0 0 0 0 0 0 0 0 0 0 0 0 0 0 0 0 0 0 0 0 0 0 0 0 0 0 0
0 0 0 0 0 0 0 0 0 0 0 0 0 0 0 0 0 0 0 0 0 0 0 0 0 0 0 0 0 0 0 0 0 0 0 0 0 0 0 0 0 0 0
0 0 0 0 0 0 0 0 0 0 0 0 0 0 0 0 0 0 0 0 0 0 0 0 0 0 0 0 0 0 0 0 0 0 0 0 0 0 0 0 0 0 0
0 0 0 0 0 0 0 0 0 0 0 0 0 0 0 0 0 0 0 0 0 0 0 0 0 0 0 -4 0 0 0 0 0 0 0 0 0 0 0 0 0 0 0
0 0 0 0 0 0 0 0 0 0 0 0 0 0 0 0 0 0 0 0 0 0 0 0 0 0 0 0 0 0 0 0 0 0 0 0 0 0 0 0 0 0 0
0 0 0 0 0 0 0 0 0 0 0 0 0 0 0 0 0 0 0 0 0 0 0 0 0 0 0 0 0 0 0 0 0 0 0 0 -170 0 0 0 0 0 0
0 0 0 0 0 0 0 0 0 0 0 0 0 0 0 0 0 0 0 0 0 0 0 0 0 0 -134 0 -161 -153 0 -61 -77 -29 -5 -134 -140 -155 -179 -178 -146 -137 -5
0 0 0 0 0 0 0 0 0 0 0 0 0 0 0 0 0 0 0 0 0 0 0 0 0 0 0 0 0 0 -115 -135 -147 -143 -137 -111 -119 -138 -148 -153 -138 -160 -42
0 0 0 0 0 0 0 0 -2 0 0 0 0 0 0 0 0 0 0 0 0 0 0 0 0 0 0 0 0 0 0 0 0 0 0 0 0 0 0 -33 -150 -171 0
0 0 0 -26 0 0 0 0 0 0 0 0 0 0 0 0 0 0 0 0 0 0 0 0 0 0 0 0 0 0 0 0 0 0 0 0 0 0 0 0 0 0 0
0 0 0 0 0 0 0 0 0 0 0 0 0 0 0 0 0 0 0 0 0 0 0 0 0 0 0 0 0 0 0 0 0 0 0 0 0 0 0 0 0 0 0
0 0 0 0 0 0 0 0 0 0 0 0 0 0 0 0 0 0 0 0 0 0 0 0 0 0 0 0 0 0 0 0 0 0 0 0 0 0 0 0 0 0 0
Wind_Speed
10 9 8 8 8 8 8 7 8 8 9 9 8 7 7 7 6 7 6 6 7 6 5 6 6 5 4 3 3 2 3 3 3 1 1 1 3 4 5 5 6 5 4
10 9 9 8 10 9 8 8 9 8 8 10 9 8 7 7 7 7 7 6 7 7 6 6 6 4 4 4 4 4 3 3 3 3 2 2 3 4 5 7 5 4 4
9 11 11 11 11 10 9 9 9 10 9 8 8 8 9 8 7 7 7 7 6 7 7 7 6 6 5 3 4 4 3 2 2 4 3 2 3 2 6 6 5 5 4
11 12 12 11 10 10 11 11 10 9 10 9 8 8 9 8 7 6 6 6 6 6 6 6 6 7 6 6 5 5 4 4 4 6 5 4 3 3 4 5 5 4 4
9 11 9 9 9 10 11 11 10 10 9 9 9 7 7 7 5 7 6 6 6 6 5 5 5 6 8 8 6 6 6 4 6 7 4 4 4 3 5 2 4 4 4
8 8 10 11 11 11 12 12 11 9 10 10 8 8 7 4 4 8 8 6 5 6 5 5 4 5 6 10 10 11 10 11 9 5 3 6 4 5 4 5 5 4 3
11 10 12 13 13 13 12 13 12 9 9 8 8 7 6 5 4 8 8 5 5 5 5 5 4 3 5 7 5 9 6 5 6 7 9 8 8 6 7 6 2 3 3
10 12 14 14 14 12 12 11 11 8 9 8 7 7 7 3 4 8 8 5 4 4 5 6 6 5 4 8 7 6 6 5 5 3 7 6 7 8 9 5 4 7 5
13 14 15 14 14 12 12 10 9 10 8 6 6 7 8 5 5 8 8 5 5 4 4 5 4 6 6 10 9 9 6 4 6 7 9 11 14 12 10 8 5 8 3
16 15 14 13 13 12 12 10 6 8 9 7 7 7 7 5 4 7 6 4 6 4 5 4 8 7 8 8 10 10 8 4 7 6 6 7 7 11 11 7 7 7 4
15 14 13 12 11 11 8 11 11 10 9 8 9 7 7 5 4 5 6 3 5 4 4 4 3 9 9 9 10 7 6 7 7 8 7 5 5 5 3 4 3 8 4
13 13 12 11 10 9 13 9 11 11 11 9 9 6 4 4 4 4 7 7 4 6 4 3 5 9 9 10 7 11 13 9 5 6 6 5 5 4 3 4 5 4 3
12 11 12 12 11 11 12 10 9 8 8 6 5 5 4 2 3 8 9 9 8 5 4 6 11 11 11 9 11 13 8 6 5 5 5 3 3 4 6 4 4 5 4
13 11 10 11 10 9 8 7 8 7 8 6 6 5 4 3 3 3 4 5 8 8 10 5 8 9 10 8 6 5 4 4 5 4 4 4 4 4 4 2 2 3 2
12 10 9 10 11 9 8 4 4 5 6 9 7 6 6 4 2 5 6 4 4 6 8 5 5 4 5 5 4 4 4 4 5 4 4 4 4 4 2 2 2 2 2
12 9 8 8 8 8 7 6 16 9 8 10 10 7 3 9 10 9 10 12 12 9 4 5 5 4 5 4 4 4 3 4 3 4 4 4 4 4 3 2 2 2 3
11 11 7 8 7 8 7 7 7 8 16 14 9 11 11 10 11 11 13 10 8 7 5 5 5 4 4 4 4 3 3 3 4 4 4 4 4 4 4 3 3 2 3
11 13 8 6 6 6 6 7 7 7 8 4 10 7 10 11 12 12 9 7 4 4 3 4 4 4 3 3 3 3 3 3 3 4 4 4 4 4 3 3 3 3 3
10 7 8 7 6 7 7 7 8 9 8 7 5 7 11 12 12 8 5 3 3 3 3 3 3 4 3 4 4 3 4 4 3 3 3 3 3 3 2 3 4 5 4
7 14 10 8 7 7 7 8 9 9 8 7 6 4 3 4 3 1 2 2 3 3 4 4 3 3 3 3 3 3 3 3 3 3 3 3 3 3 3 4 4 4 5
7 7 13 9 8 8 8 8 7 8 8 7 7 5 5 6 5 2 5 7 6 5 4 3 3 3 1 3 3 4 4 4 4 4 4 4 4 4 5 6 6 5 5
8 8 8 10 9 9 9 9 8 8 9 9 7 3 7 6 6 6 7 7 7 7 7 7 7 7 6 6 5 4 2 3 3 3 4 4 4 4 4 5 5 6 6
10 10 9 8 9 11 9 10 8 8 8 8 7 6 7 8 7 8 8 7 7 8 8 8 8 7 7 7 7 6 5 5 4 3 2 2 3 2 3 2 1 1 3
9 11 11 10 9 9 9 10 9 10 9 9 9 9 8 9 9 10 9 8 8 9 9 9 10 12 9 9 8 8 6 5 4 5 6 4 4 6 5 7 6 7 5
9 10 9 10 9 9 10 10 11 11 10 10 10 10 10 10 10 10 9 9 9 10 11 10 9 12 15 17 15 15 12 11 11 8 7 8 10 10 7 6 6 7 8
9 11 10 8 10 11 11 11 11 11 10 10 10 10 10 10 10 10 9 10 10 10 12 9 12 16 16 14 16 16 17 17 14 13 10 10 11 9 8 9 11 7 8
Wind_Direction
211 203 187 179 169 168 168 156 161 162 151 145 150 146 145 149 148 132 150 147 148 154 156 159 163 157 164 154 143 143 158 138 144 36 86 104 73 85 73 81 94 79 100
196 177 182 163 158 156 147 156 153 141 142 147 151 147 147 147 140 146 146 153 154 162 162 155 177 165 163 157 152 162 167 165 129 140 110 102 93 89 87 81 81 80 96
170 165 156 155 152 147 148 146 142 139 141 138 138 145 147 145 150 147 155 163 166 169 170 171 180 170 173 160 162 155 167 128 165 134 120 100 87 103 89 75 70 64 58
163 156 149 152 149 144 142 141 133 140 139 148 149 141 143 150 146 149 151 159 175 178 180 180 182 185 180 169 163 167 149 118 113 118 116 102 95 77 86 113 88 61 64
151 132 141 131 134 144 137 132 138 137 138 136 128 113 115 128 147 156 161 169 169 180 186 187 207 194 185 170 153 165 140 120 126 137 116 111 114 127 129 97 104 95 64
120 124 134 131 135 139 126 130 130 126 125 122 106 114 122 118 163 174 160 164 174 184 186 203 174 181 181 165 166 158 162 150 157 138 128 136 125 119 128 131 131 122 101
127 147 136 131 130 124 131 126 120 119 104 105 106 116 116 119 137 150 137 141 165 176 167 160 165 163 165 150 159 155 136 117 148 146 151 171 157 155 142 134 120 85 125
138 140 130 127 113 113 117 118 114 109 117 116 111 112 109 100 107 131 137 130 135 167 163 166 154 151 154 139 150 128 120 111 125 141 162 153 135 149 143 138 122 110 83
153 143 126 124 125 125 118 122 112 111 106 103 106 110 117 94 86 125 111 108 103 102 142 147 174 117 159 146 134 126 112 88 53 103 125 130 134 136 132 131 134 135 112
145 129 125 131 132 126 127 121 105 107 107 106 102 105 102 104 97 124 117 114 114 100 75 84 93 109 142 154 127 132 128 131 118 97 83 71 125 141 151 146 150 143 114
128 124 127 128 122 121 110 119 116 108 103 96 107 107 107 98 69 98 116 110 125 114 115 109 91 122 120 109 111 125 133 124 110 111 113 113 107 119 99 112 135 148 137
126 131 126 121 122 124 116 111 112 113 114 117 112 96 78 91 68 95 103 106 105 119 114 94 111 122 112 111 97 119 120 113 111 115 120 124 133 140 129 126 121 100 67
120 122 127 123 125 124 117 117 111 117 121 117 120 122 111 89 72 69 82 91 87 99 99 108 114 103 96 79 112 121 120 114 117 121 125 118 131 122 115 96 98 116 83
123 120 120 118 113 112 114 125 132 127 127 127 140 137 124 109 102 94 95 93 84 86 100 86 91 85 86 106 106 82 81 107 122 114 101 97 106 122 133 123 123 139 131
120 114 115 115 109 91 64 48 104 78 139 151 157 148 146 142 148 137 136 125 117 116 115 101 97 98 105 97 90 91 95 107 110 114 120 118 121 124 115 136 121 134 163
123 121 114 112 113 120 120 92 46 51 75 126 129 139 88 120 126 124 116 116 123 139 101 116 112 119 116 108 103 92 88 105 111 123 126 133 136 139 134 135 129 161 172
115 117 112 115 125 135 135 132 116 54 69 60 89 113 120 137 119 115 112 98 114 105 113 110 116 114 115 120 128 134 127 135 129 139 146 149 148 152 154 167 166 165 189
105 111 119 119 120 118 126 125 126 135 119 90 36 66 98 111 117 119 116 89 93 73 101 124 129 131 131 134 139 142 142 145 152 150 158 165 166 166 164 172 184 188 198
118 116 113 110 107 108 112 121 129 123 118 111 106 64 60 69 81 69 15 93 115 110 120 127 145 149 156 156 164 164 160 167 165 160 169 177 172 171 176 177 189 208 207
103 119 117 119 116 104 102 116 120 118 115 117 114 101 95 117 102 96 45 64 113 133 152 158 168 170 175 170 167 155 153 162 176 187 184 189 199 187 204 207 208 219 225
122 113 116 107 107 104 108 105 105 109 109 102 103 113 123 122 127 91 48 48 32 27 20 63 52 68 113 154 161 169 171 175 181 186 189 203 190 204 206 216 229 227 225
108 117 117 122 114 110 111 112 112 111 111 116 120 112 120 101 85 67 58 55 45 38 33 46 51 42 35 31 12 352 208 188 188 201 206 227 224 226 223 231 235 233 238
116 114 116 112 111 116 118 125 121 117 118 124 114 107 87 81 78 72 66 58 54 53 41 44 44 47 35 35 31 18 25 30 8 353 349 350 351 291 220 231 263 51 62
111 117 120 119 125 119 119 118 112 99 99 95 90 85 86 86 82 76 70 65 61 60 54 52 51 48 36 36 30 30 18 358 341 12 36 54 56 32 50 62 48 46 34
88 94 97 109 106 99 101 104 94 88 83 83 87 87 86 86 83 78 74 72 69 67 62 58 52 51 47 43 39 39 21 29 41 33 39 47 55 45 49 68 70 60 58
85 88 90 92 97 100 100 95 88 88 87 85 81 80 84 86 86 87 83 81 78 70 68 61 59 59 53 49 46 37 35 35 31 38 50 51 53 38 32 42 50 44 62